SpeedTest


Welcome to YZU public FTP

Department of Computer Science and Engineering, Yuan Ze University, Taiwan, R.O.C

- The open source projects mirroring project

[ICO]NameLast modifiedSize
[PARENTDIR]Parent Directory  -
[   ]audio-convert-mod-3.41.tar.gz2006-06-03 12:31 18K
[   ]audio-convert-mod-3.41.tar.gz.sig2006-06-03 12:31 65
[   ]audio-convert-mod-3.42.tar.gz2006-07-09 00:04 18K
[   ]audio-convert-mod-3.42.tar.gz.sig2006-07-09 00:04 65
[   ]FWaudio-convert-mod-3.1.tar.gz2005-11-21 03:16 16K
[   ]FWaudio-convert-mod-3.1.tar.gz.sig2005-11-21 03:16 65
[   ]FWaudio-convert-mod-3.2.tar.gz2005-11-24 11:48 24K
[   ]FWaudio-convert-mod-3.2.tar.gz.sig2005-11-24 11:48 65
[   ]FWaudio-convert-mod-3.3.tar.gz2006-02-13 11:37 16K
[   ]FWaudio-convert-mod-3.3.tar.gz.sig2006-02-13 11:37 65
[   ]FWBackups-1.2-1.noarch.rpm2005-11-26 02:12 15K
[   ]FWBackups-1.2-1.noarch.rpm.sig2005-11-26 02:12 65
[   ]FWBackups-1.2.tar.gz2005-11-21 02:54 11K
[   ]FWBackups-1.2.tar.gz.sig2005-11-21 02:54 65
[   ]FWBackups-1.3-1.noarch.rpm2005-12-22 10:52 21K
[   ]FWBackups-1.3-1.noarch.rpm.sig2005-12-22 10:52 65
[   ]FWBackups-1.3-2.noarch.rpm2005-12-23 03:12 21K
[   ]FWBackups-1.3-2.noarch.rpm.sig2005-12-23 03:12 65
[   ]FWBackups-1.3-3.noarch.rpm2005-12-23 14:39 28K
[   ]FWBackups-1.3-3.noarch.rpm.sig2005-12-23 14:39 65
[   ]FWBackups-1.3-4.noarch.rpm2005-12-24 13:20 28K
[   ]FWBackups-1.3-4.noarch.rpm.sig2005-12-24 13:20 65
[   ]FWBackups-1.3-5.noarch.rpm2005-12-26 09:17 28K
[   ]FWBackups-1.3-5.noarch.rpm.sig2005-12-26 09:17 65
[   ]FWBackups-1.3-6.noarch.rpm2006-01-01 13:05 29K
[   ]FWBackups-1.3-6.noarch.rpm.sig2006-01-01 13:05 65
[   ]FWBackups-1.4-0.noarch.rpm2006-02-13 11:37 31K
[   ]FWBackups-1.4-0.noarch.rpm.sig2006-02-13 11:37 65
[   ]FWBackups-1.4.tar.gz2006-02-13 11:37 25K
[   ]FWBackups-1.4.tar.gz.sig2006-02-13 11:37 65
[   ]FWBackups-1.41-1.noarch.rpm2006-06-12 07:31 43K
[   ]FWBackups-1.41-1.noarch.rpm.sig2006-06-12 07:31 65
[   ]FWBackups-1.41.tar.gz2006-06-12 07:30 25K
[   ]FWBackups-1.41.tar.gz.sig2006-06-12 07:30 65
[   ]FWQandA.tar.gz2005-11-21 10:24 10K
[   ]FWQandA.tar.gz.sig2005-11-21 10:24 65
[   ]FWVirusScanner-1.4-1.noarch.rpm2005-12-16 09:19 14K
[   ]FWVirusScanner-1.4-1.noarch.rpm.sig2005-12-16 09:19 65
[   ]FWVirusScanner-1.4-2.noarch.rpm2006-01-05 12:21 15K
[   ]FWVirusScanner-1.4-2.noarch.rpm.sig2006-01-05 12:21 65
[   ]FWVirusScanner-1.4.tar.gz2005-11-21 03:16 10K
[   ]FWVirusScanner-1.4.tar.gz.sig2005-11-21 03:16 65
[   ]FWVirusScanner-1.5-0.noarch.rpm2006-02-13 11:37 15K
[   ]FWVirusScanner-1.5-0.noarch.rpm.sig2006-02-13 11:37 65
[   ]FWVirusScanner-1.5.tar.gz2006-02-13 11:37 10K
[   ]FWVirusScanner-1.5.tar.gz.sig2006-02-13 11:37 65
[   ]newinstall-1.2.8-2.tar.gz2006-01-20 08:30 52K
[   ]newinstall-1.2.8-2.tar.gz.sig2006-01-20 08:30 65
[   ]newinstall-1.2.8.tar.gz2005-12-29 05:18 52K
[   ]newinstall-1.2.8.tar.gz.sig2005-12-29 05:18 65
[   ]newinstall-1.2.9.tar.gz2006-02-22 06:56 55K
[   ]newinstall-1.2.9.tar.gz.sig2006-02-22 06:56 65

If you have any questions or suggestions, please contact administrator via <gro.ollehevadretep [ta] ush>, thank you very much :)